Weather History for White Plains, NY

Change the Weather History Date:

Saturday, March 31, 2012

  Actual Average Record
Temperature  
Mean Temperature 40 °F -  
Max Temperature 42 °F 50 °F 80 °F (1998)
Min Temperature 37 °F 34 °F 26 °F (1991)
Degree Days  
Heating Degree Days 26    
Moisture  
Dew Point 36 °F    
Average Humidity 86    
Maximum Humidity 93    
Minimum Humidity 73    
Precipitation  
Precipitation 0.19 in - - ()
Sea Level Pressure  
Sea Level Pressure 29.91 in    
Wind  
Wind Speed 7 mph (ENE)    
Max Wind Speed 10 mph    
Max Gust Speed 18 mph    
Visibility 8 miles    
Events Rain , Thunderstorm    
Averages and records for this station are not official NWS values.
T = Trace of Precipitation, MM = Missing Value Source: NWS Daily Summary

Daily Weather History Graph

Daily Weather History Graph

Search for Another Location

Airport:

Trip Planner

Search our weather history database for the weather conditions in past years. The results will help you decide how hot, cold, wet, or windy it might be!

Date:

Astronomy

Mar. 31, 2012 Rise Set
Actual Time 6:39 AM EDT 7:19 PM EDT
Civil Twilight 6:11 AM EDT 7:47 PM EDT
Nautical Twilight 5:38 AM EDT 8:19 PM EDT
Astronomical Twilight 5:04 AM EDT 8:53 PM EDT
Moon 12:41 PM EDT (3/31) 2:37 AM EDT (3/31)
Length of Visible Light 13h 35m
Length of Day
12h 40m
First Quarter, 59% of the Moon is Illuminated
Mar 31
First Quarter
Apr 6
Full
Apr 13
Last Quarter
Apr 21
New
Apr 29
First Quarter

Hourly Weather History & Observations

Time (EDT) Temp. Windchill Dew Point Humidity Pressure Visibility Wind Dir Wind Speed Gust Speed Precip Events Conditions
12:56 AM 42.1 °F 37.1 °F 34.0 °F 73% 29.99 in 7.0 mi ESE 8.1 mph - 0.02 in Rain , Thunderstorm Light Thunderstorms and Rain
1:21 AM 41.0 °F 38.0 °F 35.6 °F 81% 29.99 in 9.0 mi SE 4.6 mph - 0.02 in Rain Light Rain
1:56 AM 39.9 °F 35.8 °F 36.0 °F 86% 29.97 in 8.0 mi East 5.8 mph - 0.03 in Rain Light Rain
2:56 AM 39.0 °F 33.4 °F 36.0 °F 89% 29.96 in 9.0 mi SE 8.1 mph - 0.02 in Rain Light Rain
3:56 AM 37.9 °F 32.7 °F 36.0 °F 93% 29.94 in 6.0 mi ESE 6.9 mph - 0.03 in Rain Light Rain
4:56 AM 37.9 °F 30.9 °F 36.0 °F 93% 29.91 in 6.0 mi East 10.4 mph 18.4 mph 0.00 in Rain Light Rain
5:56 AM 37.9 °F 33.5 °F 36.0 °F 93% 29.90 in 6.0 mi East 5.8 mph - 0.03 in Rain Light Rain
6:56 AM 37.4 °F 31.4 °F 35.6 °F 93% 29.89 in 5.0 mi East 8.1 mph - N/A   Overcast
7:56 AM 37.9 °F 32.7 °F 36.0 °F 93% 29.90 in 3.0 mi East 6.9 mph - 0.01 in   Drizzle
8:56 AM 39.0 °F 34.0 °F 37.0 °F 93% 29.90 in 3.0 mi ENE 6.9 mph 16.1 mph 0.03 in   Drizzle
9:56 AM 39.0 °F 34.0 °F 37.0 °F 93% 29.91 in 7.0 mi Variable 6.9 mph - 0.02 in   Drizzle
10:56 AM 39.0 °F 32.3 °F 37.0 °F 93% 29.91 in 3.0 mi ENE 10.4 mph - 0.00 in Rain Light Rain
11:56 AM 39.9 °F 34.5 °F 37.0 °F 89% 29.90 in 5.0 mi NE 8.1 mph - 0.00 in   Overcast
12:56 PM 39.9 °F 33.9 °F 37.0 °F 89% 29.89 in 8.0 mi NE 9.2 mph - N/A   Overcast
1:56 PM 39.9 °F 35.1 °F 36.0 °F 86% 29.88 in 10.0 mi ENE 6.9 mph - N/A   Overcast
2:56 PM 41.0 °F 35.8 °F 36.0 °F 82% 29.87 in 10.0 mi ENE 8.1 mph - N/A   Overcast
3:56 PM 41.0 °F 36.4 °F 35.6 °F 81% 29.86 in 10.0 mi NE 6.9 mph - N/A   Overcast
4:56 PM 41.0 °F 35.8 °F 36.0 °F 82% 29.89 in 10.0 mi NNE 8.1 mph - N/A   Overcast
5:56 PM 41.0 °F 37.1 °F 35.1 °F 79% 29.89 in 10.0 mi ENE 5.8 mph - N/A   Overcast
6:56 PM 41.0 °F 38.0 °F 35.1 °F 79% 29.90 in 10.0 mi NE 4.6 mph - N/A   Overcast
7:56 PM 41.0 °F 39.0 °F 35.1 °F 79% 29.90 in 10.0 mi NNE 3.5 mph - N/A   Overcast
8:56 PM 41.0 °F 39.0 °F 35.6 °F 81% 29.89 in 10.0 mi North 3.5 mph - N/A   Overcast
9:56 PM 41.0 °F 39.0 °F 35.1 °F 79% 29.92 in 10.0 mi North 3.5 mph - N/A   Overcast
10:56 PM 41.0 °F - 35.1 °F 79% 29.91 in 10.0 mi Calm Calm - N/A   Overcast
11:56 PM 39.9 °F 37.8 °F 35.1 °F 83% 29.91 in 10.0 mi WNW 3.5 mph - N/A   Mostly Cloudy